Home   Weather   48°45'N, 122°28'W   Past weeks
Flag for USA

Past Weather in 48°45'N, 122°28'W, USA — Yesterday and Last 2 Weeks

Now
63 °F

Passing clouds.


Feels Like: 63 °F
Forecast: 72 / 54 °F
Wind: No wind

Location: Bellingham International Airport

Current Time: May 26, 2019 at 8:31:01 pm

Latest Report: May 26, 2019 at 6:53 pm


Visibility: 10 mi

Pressure: 29.87 "Hg

Humidity: 70%

Dew Point: 53 °F

Location of 48°45'N, 122°28'WLocation

Past Weather in 48°45'N, 122°28'W — Graph

°F

48°45'N, 122°28'W Temperature Yesterday

Maximum temperature yesterday: 56 °F (at 12:53 am)
Minimum temperature yesterday: 52 °F (at 11:01 am)
Average temperature yesterday: 54 °F

High & Low Weather Summary for the Past Weeks

 TemperatureHumidityPressure
High72 °F (May 23, 5:53 pm)96% (May 16, 4:14 am)30.06 "Hg (May 16, 4:14 am)
Low46 °F (May 13, 5:53 am)44% (May 18, 3:53 pm)29.55 "Hg (May 16, 4:33 am)
Average57 °F76%29.85 "Hg
* Reported May 11 6:53 pm — May 26 6:53 pm, 48°45'N, 122°28'W. Weather by CustomWeather, © 2019

Note: Actual official high and low records may vary slightly from our data, if they occured in-between our weather recording intervals... More about our weather records

Advertising

48°45'N, 122°28'W Weather History for the Previous 24 Hours

Scroll right to see more
 ConditionsComfort  
Time TempWeatherWind HumidityBarometerVisibility
6:53 pm
Sun, May 26
63 °FPassing clouds.No wind70%29.87 "Hg10 mi
5:53 pm64 °FSunny.5 mph65%29.88 "Hg10 mi
4:53 pm65 °FSunny.5 mph63%29.87 "Hg10 mi
3:53 pm65 °FSunny.7 mph66%29.88 "Hg10 mi
2:53 pm64 °FSunny.3 mph65%29.88 "Hg10 mi
1:53 pm62 °FSunny.6 mph70%29.88 "Hg10 mi
12:53 pm61 °FSunny.8 mph72%29.89 "Hg10 mi
11:53 am62 °FSunny.9 mph70%29.90 "Hg10 mi
10:53 am61 °FScattered clouds.6 mph72%29.90 "Hg10 mi
9:53 am59 °FPassing clouds.3 mph78%29.90 "Hg10 mi
8:53 am59 °FPassing clouds.No wind75%29.90 "Hg10 mi
7:53 am57 °FPassing clouds.No wind78%29.90 "Hg10 mi
6:56 am54 °FPassing clouds.No wind86%29.89 "Hg10 mi
6:29 am51 °FFog.No wind92%29.88 "Hg3 mi
5:53 am50 °FFog.No wind93%29.90 "Hg2 mi
5:33 am50 °FFog.No wind89%29.88 "Hg2 mi
4:53 am52 °FOvercast.No wind93%29.90 "Hg7 mi
3:53 am53 °FOvercast.No wind89%29.90 "Hg7 mi
2:53 am53 °FOvercast.3 mph86%29.91 "Hg8 mi
1:53 am52 °FOvercast.6 mph89%29.92 "Hg9 mi
12:53 am53 °FFog.No wind89%29.93 "Hg6 mi
11:53 pm
Sat, May 25
52 °FFog.No wind93%29.93 "Hg6 mi
11:34 pm52 °FFog.No wind89%29.91 "Hg3 mi
10:53 pm53 °FOvercast.No wind89%29.93 "Hg10 mi
9:53 pm53 °FOvercast.No wind89%29.94 "Hg10 mi
8:53 pm54 °FOvercast.No wind86%29.93 "Hg10 mi
Weather by CustomWeather, © 2019

See weather overview